Pompano Beach, FL

3:30 AM EDT on April 28, 2017 (GMT -0400)
Pompano Beach

Weather History for KPMP - April, 2014

Change the Weather History Date:

Sunday, April 20, 2014

  Actual Average Record
Temperature  
Mean Temperature 72 °F -  
Max Temperature 79 °F 84 °F 92 °F (1959)
Min Temperature 66 °F 66 °F 54 °F (1961)
Cooling Degree Days 7    
Growing Degree Days 22 (Base 50)    
Moisture  
Dew Point 59 °F    
Average Humidity 67    
Maximum Humidity 79    
Minimum Humidity 54    
Precipitation  
Precipitation 0.00 in - - ()
Sea Level Pressure  
Sea Level Pressure 30.02 in    
Wind  
Wind Speed 10 mph (NW)    
Max Wind Speed 15 mph    
Max Gust Speed -    
Visibility 10 miles    
Events      
Averages and records for this station are not official NWS values.
T = Trace of Precipitation, MM = Missing Value Source: NWS Daily Summary

Daily Weather History Graph

Daily Weather History Graph

Search for Another Location

Airport or City:

Trip Planner

Search our weather history database for the weather conditions in past years. The results will help you decide how hot, cold, wet, or windy it might be!

Date:

Astronomy

Apr. 20, 2014 Rise Set
Actual Time 6:52 AM EDT 7:46 PM EDT
Civil Twilight 6:28 AM EDT 8:10 PM EDT
Nautical Twilight 6:00 AM EDT 8:38 PM EDT
Astronomical Twilight 5:31 AM EDT 9:07 PM EDT
Moon 12:13 AM EDT (4/20) 11:22 AM EDT (4/20)
Length of Visible Light 13h 41m
Length of Day
12h 54m
Waning Gibbous, 69% of the Moon is Illuminated
Apr 20
Waning Gibbous
Apr 22
Last Quarter
Apr 29
New
May 6
First Quarter
May 14
Full

Hourly Weather History & Observations

Time (EDT) Temp. Dew Point Humidity Pressure Visibility Wind Dir Wind Speed Gust Speed Precip Events Conditions
12:53 AM 68.0 °F 59.0 °F 73% 30.00 in 10.0 mi West 9.2 mph - N/A   Clear
1:53 AM 66.9 °F 60.1 °F 79% 30.00 in 10.0 mi WNW 6.9 mph - N/A   Overcast
2:53 AM 66.9 °F 59.0 °F 76% 29.98 in 10.0 mi West 11.5 mph - N/A   Overcast
3:53 AM 66.9 °F 59.0 °F 76% 29.97 in 10.0 mi WNW 9.2 mph - N/A   Overcast
4:53 AM 66.9 °F 57.0 °F 70% 29.96 in 10.0 mi WNW 12.7 mph - N/A   Overcast
5:53 AM 66.0 °F 57.9 °F 75% 29.97 in 10.0 mi West 9.2 mph - N/A   Overcast
6:53 AM 66.0 °F 57.0 °F 73% 29.99 in 10.0 mi West 11.5 mph - N/A   Overcast
7:53 AM 66.0 °F 57.0 °F 73% 30.02 in 10.0 mi WNW 10.4 mph - N/A   Mostly Cloudy
8:53 AM 68.0 °F 57.0 °F 68% 30.02 in 10.0 mi West 11.5 mph - N/A   Mostly Cloudy
9:53 AM 69.1 °F 55.9 °F 63% 30.04 in 10.0 mi NW 15.0 mph - N/A   Overcast
10:08 AM 69.1 °F 55.9 °F 63% 30.04 in 10.0 mi WNW 12.7 mph - N/A   Overcast
10:16 AM 70.0 °F 55.9 °F 61% 30.04 in 10.0 mi NW 11.5 mph - N/A   Overcast
10:53 AM 70.0 °F 57.0 °F 63% 30.05 in 10.0 mi NW 11.5 mph - N/A   Overcast
11:04 AM 70.0 °F 57.0 °F 63% 30.05 in 10.0 mi WNW 9.2 mph - N/A   Overcast
11:23 AM 71.1 °F 57.0 °F 61% 30.05 in 10.0 mi West 10.4 mph - N/A   Overcast
11:53 AM 73.0 °F 57.9 °F 59% 30.04 in 10.0 mi NW 12.7 mph - N/A   Overcast
12:53 PM 73.0 °F 59.0 °F 61% 30.04 in 10.0 mi WNW 8.1 mph - N/A   Overcast
1:53 PM 73.9 °F 59.0 °F 59% 30.03 in 10.0 mi WNW 9.2 mph - N/A   Mostly Cloudy
2:53 PM 75.9 °F 59.0 °F 56% 30.02 in 10.0 mi NW 11.5 mph - N/A   Overcast
3:53 PM 77.0 °F 59.0 °F 54% 30.00 in 10.0 mi NW 11.5 mph - N/A   Mostly Cloudy
4:53 PM 77.0 °F 59.0 °F 54% 29.99 in 10.0 mi WNW 11.5 mph - N/A   Mostly Cloudy
5:53 PM 78.1 °F 60.1 °F 54% 29.99 in 10.0 mi WNW 9.2 mph - N/A   Overcast
6:53 PM 75.0 °F 64.0 °F 69% 29.99 in 10.0 mi NNE 12.7 mph - N/A   Overcast
8:53 PM 72.0 °F 63.0 °F 73% 30.02 in 10.0 mi North 5.8 mph - N/A   Partly Cloudy
9:12 PM 72.0 °F 62.1 °F 71% 30.02 in 10.0 mi North 10.4 mph - N/A   Mostly Cloudy
9:25 PM 72.0 °F 61.0 °F 68% 30.03 in 10.0 mi North 8.1 mph - N/A   Mostly Cloudy
9:53 PM 70.0 °F 61.0 °F 73% 30.04 in 10.0 mi NNE 9.2 mph - N/A   Scattered Clouds
10:53 PM 69.1 °F 61.0 °F 75% 30.04 in 10.0 mi North 8.1 mph - N/A   Clear
11:53 PM 68.0 °F 61.0 °F 78% 30.04 in 10.0 mi North 4.6 mph - N/A   Clear